User: anonymous   Login
Location: Oshawa
(43.9000°N, 78.8670°W)
Time: 11:16:20
(UTC-05:00)
Language:

Cosmos 1408 Rocket - Orbit

View from above orbital plane
View from above orbital plane
View from above satellite
View from above satellite

Ground track
Ground track

The orbit data is extracted from the following two-line orbital elements,

1 13553U 82092B   15024.23113284  .00000373  00000-0  41965-4 0  1268
2 13553 082.5713 329.0961 0022795 058.8903 055.0557 14.83761836747274
Epoch (UTC): 24 January 2015 05:32:49
Eccentricity: 0.0022795
inclination: 82.5713°
perigee height: 601 km
apogee height: 633 km
right ascension of ascending node: 329.0961°
argument of perigee: 58.8903°
revolutions per day: 14.83761836
mean anomaly at epoch: 55.0557°
orbit number at epoch: 74727

The dashed part of the orbit path shows where the satellite is in the earth's shadow,  

DLR